EW2725 Weather Reports


Display with metric or nautical units.
time (UTC)temp
F
wind
direction
speed
MPH
gust
MPH
rain 1hr
in
rain 24hr
in
rain mn
in
humidity
%
barometer
mb
20260902164517 71 342 5.0 0.0 0.00 0.00 0.00 68 1100.1
20260902163014 71 15 4.0 0.0 0.00 0.00 0.00 67 1100.1
20260902161607 71 355 5.0 0.0 0.00 0.00 0.00 68 1100.1
20260902160110 71 299 5.0 0.0 0.00 0.00 0.00 68 1100.1
20260902154505 71 32 4.0 0.0 0.00 0.00 0.00 69 1100.1
20260902153141 70 34 5.0 0.0 0.00 0.00 0.00 70 1100.1
20260902151620 70 22 4.0 0.0 0.00 0.00 0.00 71 1100.1
20260902150105 69 226 4.0 0.0 0.00 0.00 0.00 72 1100.1
20260902144558 69 22 4.0 0.0 0.00 0.00 0.00 74 1100.1
20260902143113 69 34 3.0 0.0 0.00 0.00 0.00 74 1100.1
20260902141619 69 355 3.0 0.0 0.00 0.00 0.00 74 1100.1
20260902140120 69 247 4.0 0.0 0.00 0.00 0.00 74 1100.1
20260902134623 68 16 3.0 0.0 0.00 0.00 0.00 74 1100.1
20260902133127 68 110 3.0 0.0 0.00 0.00 0.00 76 1100.1
20260902131623 68 250 3.0 0.0 0.00 0.00 0.00 78 1100.1
20260902130114 68 14 2.0 0.0 0.00 0.00 0.00 78 1100.1
20260902124617 67 228 3.0 0.0 0.00 0.00 0.00 80 1100.1
20260902123019 66 84 3.0 0.0 0.00 0.00 0.00 82 1100.1
20260902121622 65 244 0.0 0.0 0.00 0.00 0.00 88 1100.1
20260902120113 64 244 0.0 0.0 0.00 0.00 0.00 89 1100.1
20260902114516 62 244 0.0 0.0 0.00 0.00 0.00 90 1100.1
20260902113020 61 244 0.0 0.0 0.00 0.00 0.00 90 1100.1
20260902111617 60 244 0.0 0.0 0.00 0.00 0.00 90 1100.1
20260902110119 60 244 0.0 0.0 0.00 0.00 0.00 90 1100.1
20260902104614 60 244 0.0 0.0 0.00 0.00 0.00 89 1100.1
20260902103118 60 244 0.0 0.0 0.00 0.00 0.00 89 1100.1
20260902101622 60 244 0.0 0.0 0.00 0.00 0.00 88 1100.1
20260902100124 60 244 0.0 0.0 0.00 0.00 0.00 88 1100.1
20260902094628 61 244 0.0 0.0 0.00 0.00 0.00 87 1100.1
20260902093009 61 244 0.0 0.0 0.00 0.00 0.00 87 1100.1
20260902091604 62 244 0.0 0.0 0.00 0.00 0.00 86 1100.1
20260902090113 63 244 0.0 0.0 0.00 0.00 0.00 86 1100.1
20260902084613 63 243 0.0 0.0 0.00 0.00 0.00 87 1100.1
20260902083124 64 244 3.0 0.0 0.00 0.00 0.00 87 1100.1
20260902081637 64 244 1.0 0.0 0.00 0.00 0.00 89 1100.1
20260902080111 64 244 3.0 0.0 0.00 0.00 0.00 90 1100.1
20260902074626 63 244 4.0 0.0 0.00 0.00 0.00 91 1100.1
20260902073132 62 244 0.0 0.0 0.00 0.00 0.00 91 1100.1
20260902071637 61 243 0.0 0.0 0.00 0.00 0.00 91 1100.1
20260902070114 61 243 0.0 0.0 0.00 0.00 0.00 91 1100.1
20260902064621 61 243 0.0 0.0 0.00 0.00 0.00 91 1100.1
20260902063129 60 243 0.0 0.0 0.00 0.00 0.00 91 1100.1
20260902061621 59 243 0.0 0.0 0.00 0.00 0.00 91 1100.1
20260902060138 59 243 0.0 0.0 0.00 0.00 0.00 90 1100.1
20260902054510 59 243 0.0 0.0 0.00 0.00 0.00 90 1100.1
20260902053104 60 243 0.0 0.0 0.00 0.00 0.00 90 1100.1
20260902051608 60 243 0.0 0.0 0.00 0.00 0.00 90 1100.1
20260902050120 60 243 0.0 0.0 0.00 0.00 0.00 90 1100.1
20260902044617 61 243 0.0 0.0 0.00 0.00 0.09 90 1100.1
20260902043120 60 243 0.0 0.0 0.00 0.00 0.09 90 1100.1
20260902041630 60 243 0.0 0.0 0.00 0.00 0.09 90 1100.1
20260902040148 60 243 0.0 0.0 0.00 0.00 0.09 90 1100.1
20260902034602 59 243 0.0 0.0 0.00 0.00 0.09 89 1100.1
20260902033109 59 243 0.0 0.0 0.00 0.00 0.09 89 1100.1
20260902031613 60 243 0.0 0.0 0.00 0.00 0.09 89 1100.1
20260902030123 59 243 0.0 0.0 0.00 0.00 0.09 89 1100.1
20260902024633 59 243 0.0 0.0 0.00 0.00 0.09 89 1100.1
20260902023005 60 243 0.0 0.0 0.00 0.00 0.09 90 1100.1
20260902021608 59 243 0.0 0.0 0.00 0.00 0.09 90 1100.1
20260902020142 59 243 0.0 0.0 0.00 0.00 0.09 89 1100.1
20260902014515 60 243 0.0 0.0 0.00 0.00 0.09 89 1100.1
20260902013109 59 243 0.0 0.0 0.00 0.00 0.09 89 1100.1
20260902011608 59 243 0.0 0.0 0.00 0.00 0.09 89 1100.1
20260902010113 59 243 0.0 0.0 0.00 0.00 0.09 89 1100.1
20260902004646 60 243 0.0 0.0 0.00 0.00 0.09 89 1100.1
20260902003134 60 243 0.0 0.0 0.00 0.00 0.09 89 1100.1
20260902001635 61 243 0.0 0.0 0.00 0.00 0.09 89 1100.1
20260902000139 61 243 0.0 0.0 0.00 0.00 0.09 89 1100.1
20260901234642 61 243 0.0 0.0 0.00 0.00 0.09 89 1100.1
20260901233139 62 243 0.0 0.0 0.00 0.00 0.09 89 1100.1
20260901231632 62 243 0.0 0.0 0.00 0.00 0.09 89 1100.1
20260901230130 62 243 0.0 0.0 0.00 0.00 0.09 89 1100.1
20260901224635 63 243 0.0 0.0 0.00 0.00 0.09 89 1100.1
20260901210133 63 243 0.0 0.0 0.00 0.00 0.09 88 1100.1
20260901201515 63 243 0.0 0.0 0.00 0.00 0.09 88 1100.1
20260901200105 63 243 0.0 0.0 0.00 0.00 0.08 88 1100.1
20260901194648 62 243 1.0 0.0 0.00 0.00 0.08 87 1100.1
20260901193128 62 243 0.0 0.0 0.00 0.00 0.07 88 1100.1
20260901191515 62 243 2.0 0.0 0.00 0.00 0.07 87 1100.1
20260901190012 63 243 0.0 0.0 0.00 0.00 0.07 87 1100.1
20260901184611 63 243 0.0 0.0 0.00 0.00 0.06 85 1100.1
20260901183011 64 243 0.0 0.0 0.00 0.00 0.01 83 1100.1
20260901181624 65 243 1.0 0.0 0.00 0.00 0.00 81 1100.1
20260901180153 65 243 2.0 0.0 0.00 0.00 0.00 80 1100.1
20260901174647 66 243 1.0 0.0 0.00 0.00 0.00 79 1100.1
20260901173102 65 243 2.0 0.0 0.00 0.00 0.00 79 1100.1
20260901171626 67 243 3.0 0.0 0.00 0.00 0.00 75 1100.1
20260901170125 68 230 3.0 0.0 0.00 0.00 0.00 71 1100.1